Baker, OR

2:40 PM PST on February 19, 2018 (GMT -0800)
Baker City Municipal

Weather History for KBKE - February, 2014

Change the Weather History Date:

Monday, February 10, 2014

  Actual Average Record
Temperature  
Mean Temperature 21 °F 28 °F  
Max Temperature 33 °F 38 °F 61 °F (1961)
Min Temperature 8 °F 18 °F -17 °F (1982)
Degree Days  
Heating Degree Days 44 37  
Month to date heating degree days 475 377  
Since 1 July heating degree days 5021 4900  
Cooling Degree Days 0 0  
Month to date cooling degree days 0 0  
Year to date cooling degree days 0 0  
Moisture  
Dew Point 14 °F    
Average Humidity 83    
Maximum Humidity 92    
Minimum Humidity 73    
Precipitation  
Precipitation T in 0.02 in 0.15 in (1940)
Month to date precipitation 0.48 0.21  
Year to date precipitation 0.98 1.01  
Sea Level Pressure  
Sea Level Pressure 30.20 in    
Wind  
Wind Speed 2 mph (SW)    
Max Wind Speed 7 mph    
Max Gust Speed 8 mph    
Visibility 2 miles    
Events Fog    
T = Trace of Precipitation, MM = Missing Value Source: NWS Daily Summary

Daily Weather History Graph

Daily Weather History Graph

Search for Another Location

Airport or City:

Trip Planner

Search our weather history database for the weather conditions in past years. The results will help you decide how hot, cold, wet, or windy it might be!

Date:

Astronomy

Feb. 10, 2014 Rise Set
Actual Time 6:58 AM PST 5:12 PM PST
Civil Twilight 6:28 AM PST 5:43 PM PST
Nautical Twilight 5:54 AM PST 6:17 PM PST
Astronomical Twilight 5:20 AM PST 6:51 PM PST
Moon 1:41 PM PST (2/10) 4:00 AM PST (2/10)
Length of Visible Light 11h 14m
Length of Day
10h 13m
Waxing Gibbous, 85% of the Moon is Illuminated
Feb 10
Waxing Gibbous
Feb 14
Full
Feb 22
Last Quarter
Mar 1
New
Mar 8
First Quarter

Hourly Weather History & Observations

Time (PST) Temp. Windchill Dew Point Humidity Pressure Visibility Wind Dir Wind Speed Gust Speed Precip Events Conditions
12:22 AM 14.0 °F - 9.0 °F 80% 30.07 in 0.5 mi Calm Calm - N/A   Haze
12:43 AM 14.0 °F 8.2 °F 10.0 °F 84% 30.07 in 0.2 mi West 3.5 mph - N/A Fog Light Freezing Fog
12:53 AM 14.0 °F 8.2 °F 10.0 °F 84% 30.18 in 0.2 mi NNW 3.5 mph - N/A Fog Light Freezing Fog
1:53 AM 12.9 °F 3.8 °F 8.1 °F 81% 30.20 in 0.2 mi WSW 5.8 mph - N/A   Haze
2:28 AM 14.0 °F - 9.0 °F 80% 30.10 in 0.5 mi Calm Calm - N/A   Haze
2:38 AM 15.1 °F - 10.0 °F 80% 30.10 in 0.2 mi Calm Calm - N/A   Haze
2:53 AM 15.1 °F 9.4 °F 10.0 °F 80% 30.20 in 0.2 mi ESE 3.5 mph - N/A   Haze
3:08 AM 15.1 °F 9.4 °F 10.0 °F 80% 30.10 in 0.5 mi ESE 3.5 mph - N/A   Haze
3:45 AM 14.0 °F 8.2 °F 9.0 °F 80% 30.11 in 0.2 mi East 3.5 mph - N/A   Haze
3:53 AM 12.9 °F - 9.0 °F 84% 30.22 in 0.2 mi Calm Calm - N/A Fog Light Freezing Fog
4:13 AM 12.0 °F - 7.0 °F 80% 30.12 in 0.5 mi Calm Calm - N/A   Haze
4:21 AM 10.9 °F 4.7 °F 6.1 °F 81% 30.12 in 0.2 mi NNW 3.5 mph - N/A   Haze
4:42 AM 10.0 °F 1.8 °F 5.0 °F 80% 30.13 in 0.5 mi WNW 4.6 mph - N/A   Haze
4:53 AM 10.0 °F - 5.0 °F 80% 30.25 in 0.5 mi Calm Calm - N/A   Haze
5:00 AM 9.0 °F - 5.0 °F 84% 30.13 in 0.2 mi Calm Calm - N/A Fog Light Freezing Fog
5:20 AM 8.1 °F 1.4 °F 3.9 °F 83% 30.13 in 0.8 mi SSE 3.5 mph - N/A   Mist
5:28 AM 8.1 °F -0.5 °F 3.0 °F 80% 30.13 in 2.0 mi SSW 4.6 mph - N/A   Haze
5:48 AM 10.4 °F - 3.2 °F 73% 30.14 in 8.0 mi Calm Calm - N/A   Overcast
5:53 AM 10.0 °F - 3.9 °F 76% 30.27 in 8.0 mi Calm Calm - N/A   Overcast
6:24 AM 12.0 °F 5.9 °F 6.1 °F 77% 30.14 in 1.8 mi NNE 3.5 mph - N/A   Haze
6:33 AM 12.9 °F - 8.1 °F 81% 30.14 in 0.2 mi Calm Calm - N/A   Haze
6:53 AM 12.9 °F - 9.0 °F 84% 30.29 in 0.2 mi Calm Calm - N/A Fog Light Freezing Fog
7:29 AM 14.0 °F - 10.0 °F 84% 30.17 in 1.2 mi Calm Calm - N/A   Overcast
7:34 AM 15.1 °F - 9.0 °F 77% 30.17 in 3.0 mi Calm Calm - N/A   Haze
7:49 AM 14.0 °F - 8.6 °F 79% 30.17 in 1.8 mi Calm Calm - N/A   Haze
7:53 AM 14.0 °F - 9.0 °F 80% 30.32 in 0.5 mi Calm Calm - N/A   Haze
8:01 AM 15.1 °F - 10.9 °F 84% 30.18 in 0.2 mi Calm Calm - N/A Fog Light Freezing Fog
8:53 AM 21.0 °F - 15.1 °F 78% 30.31 in 0.2 mi Calm Calm - N/A   Haze
9:07 AM 21.0 °F - 15.1 °F 78% 30.19 in 0.5 mi Calm Calm - N/A   Haze
9:46 AM 21.9 °F - 17.1 °F 82% 30.19 in 2.0 mi Calm Calm - N/A   Haze
9:53 AM 23.0 °F 18.4 °F 17.1 °F 78% 30.31 in 6.0 mi SW 3.5 mph - N/A   Haze
10:53 AM 24.1 °F 17.0 °F 18.0 °F 77% 30.32 in 2.0 mi West 5.8 mph - N/A   Haze
11:00 AM 24.1 °F 18.2 °F 17.1 °F 75% 30.19 in 1.2 mi West 4.6 mph - N/A   Haze
11:16 AM 25.0 °F - 19.9 °F 81% 30.19 in 0.5 mi Calm Calm - N/A   Haze
11:53 AM 26.1 °F - 21.0 °F 81% 30.31 in 0.2 mi Calm Calm - N/A   Haze
12:03 PM 27.0 °F 21.6 °F 19.9 °F 75% 30.18 in 0.5 mi West 4.6 mph - N/A   Haze
12:21 PM 27.0 °F - 21.0 °F 78% 30.18 in 0.2 mi Calm Calm - N/A   Haze
12:53 PM 28.9 °F 25.2 °F 21.9 °F 75% 30.29 in 0.2 mi SSW 3.5 mph - N/A   Haze
1:53 PM 30.0 °F - 24.1 °F 79% 30.29 in 0.2 mi Calm Calm - N/A   Haze
2:03 PM 30.0 °F - 24.1 °F 79% 30.18 in 0.5 mi Calm Calm - N/A   Haze
2:31 PM 30.9 °F - 24.1 °F 76% 30.16 in 2.0 mi Calm Calm - N/A   Haze
2:40 PM 30.0 °F - 24.1 °F 79% 30.15 in 6.0 mi Calm Calm - N/A   Haze
2:53 PM 30.9 °F - 24.1 °F 76% 30.27 in 10.0 mi Calm Calm - N/A   Overcast
3:53 PM 28.9 °F - 25.0 °F 85% 30.28 in 6.0 mi Calm Calm - N/A   Overcast
4:53 PM 28.0 °F 24.2 °F 24.1 °F 85% 30.29 in 10.0 mi SE 3.5 mph - 0.00 in   Overcast
5:53 PM 27.0 °F - 24.1 °F 89% 30.28 in 9.0 mi Calm Calm - N/A   Mostly Cloudy
6:53 PM 28.0 °F 24.2 °F 24.1 °F 85% 30.27 in 10.0 mi NNE 3.5 mph - N/A   Overcast
7:53 PM 28.0 °F - 25.0 °F 88% 30.25 in 7.0 mi Calm Calm - N/A   Overcast
8:53 PM 27.0 °F 23.0 °F 24.1 °F 89% 30.24 in 7.0 mi South 3.5 mph - N/A   Mostly Cloudy
9:53 PM 24.1 °F 17.0 °F 19.9 °F 84% 30.24 in 5.0 mi ENE 5.8 mph - N/A   Scattered Clouds
10:53 PM 24.1 °F - 21.0 °F 88% 30.23 in 6.0 mi Calm Calm - N/A   Mostly Cloudy
11:53 PM 23.0 °F - 19.9 °F 88% 30.22 in 5.0 mi Calm Calm - N/A   Partly Cloudy